Location: *
(41.3833°S, 177.8333°W)
Time: 20:45:25
(UTC+00:00)

Cosmos 2034 Rocket - Pass Details

Date: 01 April 2020
Orbit: 957 x 1001 km, 82.9° (Epoch: 30 May)

Event Time Altitude Azimuth Distance (km) Brightness Sun altitude
Exits shadow 15:08:45 65° 112° (ESE) 1,086 4.3 -33.5°
Drops below altitude 10° 15:14:32 10° 167° (SSE) 2,751 6.7 -32.6°
Sets 15:17:04 0° 169° (S) 3,699 7.5 -32.1°
